Weather History for Nuuk, Greenland

Change the Weather History Date:

Sunday, October 21, 2012

  Actual Average Record
Temperature  
Mean Temperature 32 °F -  
Max Temperature 33 °F 29 °F 48 °F (2003)
Min Temperature 30 °F 24 °F 21 °F (1998)
Degree Days  
Heating Degree Days 34    
Moisture  
Dew Point 24 °F    
Average Humidity 72    
Maximum Humidity 80    
Minimum Humidity 56    
Precipitation  
Precipitation 0.00 in - - ()
Sea Level Pressure  
Sea Level Pressure 30.06 in    
Wind  
Wind Speed 10 mph ()    
Max Wind Speed 17 mph    
Max Gust Speed -    
Visibility 6.2 miles    
Events      
Averages and records for this station are not official NWS values.
T = Trace of Precipitation, MM = Missing Value Source: Averaged Metar Reports

Daily Weather History Graph

Daily Weather History Graph

Search for Another Location

Airport:

Trip Planner

Search our weather history database for the weather conditions in past years. The results will help you decide how hot, cold, wet, or windy it might be!

Date:

Astronomy

Oct. 21, 2012 Rise Set
Actual Time 8:36 AM WGST 5:44 PM WGST
Civil Twilight 7:46 AM WGST 6:34 PM WGST
Nautical Twilight 6:50 AM WGST 7:29 PM WGST
Astronomical Twilight 5:55 AM WGST 8:25 PM WGST
Moon 3:42 PM WGST (10/21) 10:48 PM WGST (10/21)
Length of Visible Light 10h 47m
Length of Day
9h 07m
Waxing Crescent, 44% of the Moon is Illuminated
Oct 21
Waxing Crescent
Oct 22
First Quarter
Oct 29
Full
Nov 6
Last Quarter
Nov 13
New

Hourly Weather History & Observations

Time (WGST) Temp. Windchill Dew Point Humidity Pressure Visibility Wind Dir Wind Speed Gust Speed Precip Events Conditions
12:20 AM 30.2 °F 20.8 °F 23.0 °F 75% 30.09 in 6.2 mi ENE 11.5 mph - N/A   Scattered Clouds
12:50 AM 30.2 °F 21.3 °F 23.0 °F 75% 30.09 in 6.2 mi ENE 10.4 mph - N/A   Mostly Cloudy
1:00 AM 32 °F - 25 °F 65% 30.08 in 31 mi NNE 12.7 mph - -   Mostly Cloudy
1:20 AM 32.0 °F 23.0 °F 23.0 °F 69% 30.09 in 6.2 mi ENE 11.5 mph - N/A   Scattered Clouds
1:50 AM 32.0 °F 23.6 °F 23.0 °F 69% 30.09 in 6.2 mi ENE 10.4 mph - N/A   Mostly Cloudy
2:20 AM 32.0 °F 23.6 °F 23.0 °F 69% 30.09 in 6.2 mi ENE 10.4 mph - N/A   Mostly Cloudy
2:50 AM 30.2 °F 21.3 °F 24.8 °F 80% 30.09 in 6.2 mi ENE 10.4 mph - N/A   Overcast
3:20 AM 30.2 °F 21.3 °F 24.8 °F 80% 30.09 in 6.2 mi NE 10.4 mph - N/A   Overcast
3:50 AM 30.2 °F 21.9 °F 24.8 °F 80% 30.09 in 6.2 mi NE 9.2 mph - N/A   Mostly Cloudy
4:00 AM 31 °F - 25 °F 70% 30.07 in 31 mi North 12.7 mph - -   Partly Cloudy
4:20 AM 30.2 °F 20.2 °F 24.8 °F 80% 30.09 in 6.2 mi NE 12.7 mph - N/A   Mostly Cloudy
4:50 AM 30.2 °F 21.3 °F 24.8 °F 80% 30.09 in 6.2 mi ENE 10.4 mph - N/A   Overcast
5:20 AM 30.2 °F 21.3 °F 24.8 °F 80% 30.09 in 6.2 mi NE 10.4 mph - N/A   Overcast
5:50 AM 32.0 °F 23.6 °F 23.0 °F 69% 30.09 in 6.2 mi ENE 10.4 mph - N/A   Overcast
6:20 AM 30.2 °F 20.8 °F 24.8 °F 80% 30.09 in 6.2 mi ENE 11.5 mph - N/A   Overcast
6:50 AM 30.2 °F 20.8 °F 23.0 °F 75% 30.09 in 6.2 mi NE 11.5 mph - N/A   Mostly Cloudy
7:00 AM 31 °F - 25 °F 70% 30.07 in 31 mi North 16.1 mph - -   Scattered Clouds
7:20 AM 30.2 °F 20.8 °F 23.0 °F 75% 30.09 in 6.2 mi NE 11.5 mph - N/A   Scattered Clouds
7:50 AM 30.2 °F 21.3 °F 23.0 °F 75% 30.09 in 6.2 mi NE 10.4 mph - N/A   Overcast
8:20 AM 30.2 °F 20.2 °F 24.8 °F 80% 30.09 in 6.2 mi NNE 12.7 mph - N/A   Scattered Clouds
8:50 AM 30.2 °F 19.8 °F 23.0 °F 75% 30.06 in 6.2 mi NE 13.8 mph - N/A   Scattered Clouds
9:50 AM 30.2 °F 20.8 °F 23.0 °F 75% 30.06 in 6.2 mi ENE 11.5 mph - N/A   Scattered Clouds
10:00 AM 31 °F - 25 °F 71% 30.07 in 31 mi NE 15.0 mph - -   Scattered Clouds
10:50 AM 30.2 °F 19.8 °F 23.0 °F 75% 30.06 in 6.2 mi NE 13.8 mph - N/A   Scattered Clouds
12:50 PM 32.0 °F 21.6 °F 24.8 °F 75% 30.06 in 6.2 mi NE 15.0 mph - N/A   Scattered Clouds
1:00 PM 32 °F - 25 °F 65% 30.04 in 31 mi NNE 17.3 mph - -   Scattered Clouds
1:50 PM 32.0 °F 22.1 °F 24.8 °F 75% 30.04 in 6.2 mi NE 13.8 mph - N/A   Scattered Clouds
4:00 PM 32 °F - 24 °F 63% 30.02 in 31 mi NNE 13.8 mph - -  
4:50 PM 32.0 °F 23.0 °F 23.0 °F 69% 30.04 in 5.6 mi NE 11.5 mph - N/A   Scattered Clouds
5:50 PM 32.0 °F 24.2 °F 21.2 °F 64% 30.04 in 6.2 mi ENE 9.2 mph - N/A   Mostly Cloudy
6:50 PM 32.0 °F 23.6 °F 24.8 °F 75% 30.04 in 6.2 mi NE 10.4 mph - N/A   Mostly Cloudy
7:00 PM 32 °F - 25 °F 66% 30.01 in 31 mi North 11.5 mph - -   Mostly Cloudy
7:20 PM 32.0 °F 22.5 °F 23.0 °F 69% 30.01 in 6.2 mi NE 12.7 mph - N/A   Mostly Cloudy
7:50 PM 32.0 °F 23.6 °F 24.8 °F 75% 30.01 in 6.2 mi NE 10.4 mph - N/A   Mostly Cloudy
8:20 PM 32.0 °F 22.5 °F 24.8 °F 75% 30.01 in 6.2 mi NNE 12.7 mph - N/A   Mostly Cloudy
8:50 PM 32.0 °F 25.6 °F 21.2 °F 64% 30.01 in 6.2 mi ENE 6.9 mph - N/A   Overcast
9:20 PM 32.0 °F - 21.2 °F 64% 30.01 in 6.2 mi NE 2.3 mph - N/A   Overcast
9:50 PM 32.0 °F - 21.2 °F 64% 30.01 in 6.2 mi SE 1.2 mph - N/A   Overcast
10:00 PM 33 °F - 25 °F 63% 29.99 in 31 mi NE 13.8 mph - -   Overcast
10:20 PM 32.0 °F - 24.8 °F 75% 30.01 in 6.2 mi ESE 2.3 mph - N/A   Overcast
10:50 PM 33.8 °F 30.8 °F 19.4 °F 56% 30.01 in 6.2 mi ESE 3.5 mph - N/A   Overcast
11:20 PM 32.0 °F - 23.0 °F 69% 30.04 in 6.2 mi WSW 2.3 mph - N/A   Mostly Cloudy
11:50 PM 32.0 °F - 23.0 °F 69% 30.04 in 6.2 mi NNE 2.3 mph - N/A   Mostly Cloudy